This demonstration page uses our WeatherBlox Daily Observations layout. Learn more.

Left ArrowRight Arrow

39.29038, -76.61219

Hourly Observations for December 4, 2020

Temp ( °F °C ) Dew Point ( °F °C ) Humidity (%) Winds ( mph kmh ) Pressure ( in mb ) Visibility ( mi km ) Precip ( " mm )
12:54 am 00:54 Cloudy 49 9.4 25 -3.9 39 39 SW 6 9 30.14 1021 10 16 0.00 0.00
1:54 am 01:54 Mostly Cloudy 49 9.4 26 -3.3 41 41 SSW 5 7 30.12 1020 10 16 0.00 0.00
2:54 am 02:54 Cloudy 49 9.4 26 -3.3 41 41 SSW 7 11 30.12 1020 10 16 0.00 0.00
3:54 am 03:54 Mostly Cloudy 48 8.9 26 -3.3 42 42 S 3 6 30.09 1019 10 16 0.00 0.00
4:54 am 04:54 Mostly Cloudy 46 7.8 27 -2.8 47 47 Calm 30.07 1018 10 16 0.00 0.00
5:54 am 05:54 Mostly Cloudy 47 8.3 28 -2.2 48 48 VRB 5 7 30.08 1019 10 16 0.00 0.00
6:54 am 06:54 Mostly Cloudy 48 8.9 28 -2.2 46 46 Calm 30.09 1019 10 16 0.00 0.00
7:54 am 07:54 Cloudy 46 7.8 29 -1.7 51 51 SSE 5 7 30.07 1018 10 16 0.00 0.00
8:54 am 08:54 Cloudy with Light Rain 47 8.3 32 0 56 56 Calm 30.09 1019 10 16 0.00 0.00
9:54 am 09:54 Mostly Cloudy with Light Rain 45 7.2 38 3.3 77 77 Calm 30.08 1019 10 16 0.01 0.25
10:54 am 10:54 Mostly Cloudy 47 8.3 38 3.3 71 71 N 3 6 30.06 1018 10 16 0.00 0.00
11:54 am 11:54 Cloudy with Light Rain 48 8.9 40 4.4 74 74 N 5 7 30.03 1017 10 16 0.00 0.00
12:54 pm 12:54 Cloudy 49 9.4 39 3.9 69 69 VRB 3 6 30.04 1017 10 16 0.00 0.00
1:54 pm 13:54 Cloudy 51 10.6 38 3.3 61 61 SW 3 6 30.04 1017 10 16 0.00 0.00
2:54 pm 14:54 Cloudy 51 10.6 36 2.2 56 56 Calm 30.00 1016 10 16 0.00 0.00
3:54 pm 15:54 Cloudy 50 10 37 2.8 61 61 WNW 5 7 29.99 1016 10 16 0.00 0.00
4:54 pm 16:54 Cloudy 49 9.4 39 3.9 69 69 NNE 3 6 29.97 1015 10 16 0.00 0.00
5:54 pm 17:54 Cloudy 48 8.9 41 5 77 77 Calm 29.98 1015 10 16 0.00 0.00
6:54 pm 18:54 Cloudy with Light Rain 47 8.3 42 5.6 83 83 Calm 29.96 1014 10 16 0.01 0.25
7:54 pm 19:54 Cloudy with Light Rain 46 7.8 43 6.1 89 89 ESE 5 7 29.95 1014 9 14 0.01 0.25
8:54 pm 20:54 Cloudy with Light Rain 46 7.8 43 6.1 89 89 NE 3 6 29.91 1013 10 16 0.04 1.02
9:54 pm 21:54 Cloudy with Light Rain 46 7.8 44 6.7 93 93 Calm 29.91 1013 4 6 0.08 2.03
10:54 pm 22:54 Cloudy with Light Rain 46 7.8 44 6.7 93 93 NE 3 6 29.86 1011 4 6 0.13 3.30
11:54 pm 23:54 Cloudy with Light Rain 46 7.8 44 6.7 93 93 NNE 5 7 29.83 1010 5 8 0.01 0.25

Powered by AerisWeather